This is the latest recevied weather packets stored in our database for station/object WK7G. If no packets are shown the sender has not sent any weather packets the latest 10 day(s).
| Time | Temp. | Humidity | Pressure | Rain* | Wind** | Luminosity | Snow |
|---|---|---|---|---|---|---|---|
| 1777906793 | 13.89° C | 45% | 1004 hPa | 0 mm | - | 217 W/m² | - |
| 1777906490 | 13.89° C | 46% | 1003.8 hPa | 0 mm | - | 397 W/m² | - |
| 1777906186 | 13.33° C | 47% | 1003.9 hPa | 0 mm | - | 367 W/m² | - |
| 1777905883 | 12.22° C | 51% | 1004.2 hPa | 0 mm | - | 343 W/m² | - |
| 1777905579 | 12.22° C | 48% | 1004 hPa | 0 mm | - | 326 W/m² | - |
| 1777905277 | 11.11° C | 48% | 1003.9 hPa | 0 mm | - | 301 W/m² | - |
| 1777904974 | 11.11° C | 49% | 1004.2 hPa | 0 mm | - | 250 W/m² | - |
| 1777904671 | 10.56° C | 52% | 1004.4 hPa | 0 mm | - | 257 W/m² | - |
| 1777904368 | 10.56° C | 52% | 1004 hPa | 0 mm | - | 246 W/m² | - |
| 1777904065 | 10.56° C | 54% | 1004.5 hPa | 0 mm | - | 227 W/m² | - |
| 1777903762 | 10° C | 55% | 1004.2 hPa | 0 mm | - | 216 W/m² | - |
| 1777903458 | 10° C | 59% | 1004.5 hPa | 0 mm | - | 190 W/m² | - |
| 1777903155 | 8.89° C | 59% | 1004.2 hPa | 0 mm | - | 170 W/m² | - |
| 1777902851 | 7.78° C | 60% | 1004.4 hPa | 0 mm | - | 165 W/m² | - |
| 1777902549 | 6.67° C | 63% | 1004.5 hPa | 0 mm | - | 147 W/m² | - |
| 1777902245 | 5.56° C | 64% | 1004.4 hPa | 0 mm | - | 123 W/m² | - |
| 1777901943 | 5.56° C | 64% | 1004.4 hPa | 0 mm | - | 113 W/m² | - |
| 1777901641 | 5.56° C | 68% | 1004.3 hPa | 0 mm | - | 95 W/m² | - |
| 1777901338 | 6.67° C | 65% | 1004.4 hPa | 0 mm | - | 60 W/m² | - |
| 1777901035 | 6.11° C | 65% | 1004.5 hPa | 0 mm | - | 52 W/m² | - |
| 1777900733 | 6.67° C | 63% | 1004.4 hPa | 0 mm | - | 49 W/m² | - |
| 1777900429 | 5.56° C | 66% | 1004.3 hPa | 0 mm | - | 45 W/m² | - |
| 1777900126 | 5.56° C | 65% | 1004.6 hPa | 0 mm | - | 40 W/m² | - |
| 1777899823 | 4.44° C | 66% | 1004.4 hPa | 0 mm | - | 35 W/m² | - |
| 1777899520 | 3.89° C | 65% | 1004.5 hPa | 0 mm | - | 32 W/m² | - |
* Rain latest hour (hover to see other rain measurements)
** Current wind speed in m/s (hover to see current wind gust speed)